owner,sensor,date,latitude,longitude,air_temperature,qcFlag 
COMPS,ioos:station:USF.COMPS:ARP:1,2019-03-01T00:00:00Z,28.4330,-82.6670,21.72,1111122 
COMPS,ioos:station:USF.COMPS:ARP:1,2019-03-01T00:06:00Z,28.4330,-82.6670,21.61,1111122 
COMPS,ioos:station:USF.COMPS:ARP:1,2019-03-01T00:12:00Z,28.4330,-82.6670,21.54,1111122 
COMPS,ioos:station:USF.COMPS:ARP:1,2019-03-01T00:18:00Z,28.4330,-82.6670,21.52,1111122 
COMPS,ioos:station:USF.COMPS:ARP:1,2019-03-01T00:24:00Z,28.4330,-82.6670,21.52,1111122 
COMPS,ioos:station:USF.COMPS:ARP:1,2019-03-01T00:30:00Z,28.4330,-82.6670,21.77,1111122 
COMPS,ioos:station:USF.COMPS:ARP:1,2019-03-01T00:36:00Z,28.4330,-82.6670,21.92,1111122 
COMPS,ioos:station:USF.COMPS:ARP:1,2019-03-01T00:42:00Z,28.4330,-82.6670,21.99,1111122 
COMPS,ioos:station:USF.COMPS:ARP:1,2019-03-01T00:48:00Z,28.4330,-82.6670,21.98,1111122 
COMPS,ioos:station:USF.COMPS:ARP:1,2019-03-01T00:54:00Z,28.4330,-82.6670,22.15,1111122 
COMPS,ioos:station:USF.COMPS:ARP:1,2019-03-01T01:00:00Z,28.4330,-82.6670,22.04,1111122 
COMPS,ioos:station:USF.COMPS:ARP:1,2019-03-01T01:06:00Z,28.4330,-82.6670,22.08,1111122 
COMPS,ioos:station:USF.COMPS:ARP:1,2019-03-01T01:12:00Z,28.4330,-82.6670,22.1,1111122 
COMPS,ioos:station:USF.COMPS:ARP:1,2019-03-01T01:18:00Z,28.4330,-82.6670,22.08,1111122 
COMPS,ioos:station:USF.COMPS:ARP:1,2019-03-01T01:24:00Z,28.4330,-82.6670,22.09,1111122 
COMPS,ioos:station:USF.COMPS:ARP:1,2019-03-01T01:30:00Z,28.4330,-82.6670,22.09,1111122 
COMPS,ioos:station:USF.COMPS:ARP:1,2019-03-01T01:36:00Z,28.4330,-82.6670,22.12,1111122 
COMPS,ioos:station:USF.COMPS:ARP:1,2019-03-01T01:42:00Z,28.4330,-82.6670,22.15,1111122 
COMPS,ioos:station:USF.COMPS:ARP:1,2019-03-01T01:48:00Z,28.4330,-82.6670,22.16,1111122 
COMPS,ioos:station:USF.COMPS:ARP:1,2019-03-01T01:54:00Z,28.4330,-82.6670,22.31,1111122 
COMPS,ioos:station:USF.COMPS:ARP:1,2019-03-01T02:00:00Z,28.4330,-82.6670,22.22,1111122 
COMPS,ioos:station:USF.COMPS:ARP:1,2019-03-01T02:06:00Z,28.4330,-82.6670,22.29,1111122 
COMPS,ioos:station:USF.COMPS:ARP:1,2019-03-01T02:12:00Z,28.4330,-82.6670,22.37,1111122 
COMPS,ioos:station:USF.COMPS:ARP:1,2019-03-01T02:18:00Z,28.4330,-82.6670,22.37,1111122 
COMPS,ioos:station:USF.COMPS:ARP:1,2019-03-01T02:24:00Z,28.4330,-82.6670,22.47,1111122 
COMPS,ioos:station:USF.COMPS:ARP:1,2019-03-01T02:30:00Z,28.4330,-82.6670,22.5,1111122 
COMPS,ioos:station:USF.COMPS:ARP:1,2019-03-01T02:36:00Z,28.4330,-82.6670,22.55,1111122 
COMPS,ioos:station:USF.COMPS:ARP:1,2019-03-01T02:42:00Z,28.4330,-82.6670,22.6,1111122 
COMPS,ioos:station:USF.COMPS:ARP:1,2019-03-01T02:48:00Z,28.4330,-82.6670,22.65,1111122 
COMPS,ioos:station:USF.COMPS:ARP:1,2019-03-01T02:54:00Z,28.4330,-82.6670,22.81,1111122 
COMPS,ioos:station:USF.COMPS:ARP:1,2019-03-01T03:00:00Z,28.4330,-82.6670,22.67,1111122 
COMPS,ioos:station:USF.COMPS:ARP:1,2019-03-01T03:06:00Z,28.4330,-82.6670,22.7,1111122 
COMPS,ioos:station:USF.COMPS:ARP:1,2019-03-01T03:12:00Z,28.4330,-82.6670,22.72,1111122 
COMPS,ioos:station:USF.COMPS:ARP:1,2019-03-01T03:18:00Z,28.4330,-82.6670,22.69,1111122 
COMPS,ioos:station:USF.COMPS:ARP:1,2019-03-01T03:24:00Z,28.4330,-82.6670,22.71,1111122 
COMPS,ioos:station:USF.COMPS:ARP:1,2019-03-01T03:30:00Z,28.4330,-82.6670,22.81,1111122 
COMPS,ioos:station:USF.COMPS:ARP:1,2019-03-01T03:36:00Z,28.4330,-82.6670,22.86,1111122 
COMPS,ioos:station:USF.COMPS:ARP:1,2019-03-01T03:42:00Z,28.4330,-82.6670,22.88,1111122 
COMPS,ioos:station:USF.COMPS:ARP:1,2019-03-01T03:48:00Z,28.4330,-82.6670,22.78,1111122 
COMPS,ioos:station:USF.COMPS:ARP:1,2019-03-01T03:54:00Z,28.4330,-82.6670,22.9,1111122 
COMPS,ioos:station:USF.COMPS:ARP:1,2019-03-01T04:00:00Z,28.4330,-82.6670,23.01,1111122 
COMPS,ioos:station:USF.COMPS:ARP:1,2019-03-01T04:06:00Z,28.4330,-82.6670,22.77,1111122 
COMPS,ioos:station:USF.COMPS:ARP:1,2019-03-01T04:12:00Z,28.4330,-82.6670,22.81,1111122 
COMPS,ioos:station:USF.COMPS:ARP:1,2019-03-01T04:18:00Z,28.4330,-82.6670,23.71,1111122 
COMPS,ioos:station:USF.COMPS:ARP:1,2019-03-01T04:24:00Z,28.4330,-82.6670,25.16,1111122 
COMPS,ioos:station:USF.COMPS:ARP:1,2019-03-01T04:30:00Z,28.4330,-82.6670,24.84,1111122 
COMPS,ioos:station:USF.COMPS:ARP:1,2019-03-01T04:36:00Z,28.4330,-82.6670,24.61,1111122 
COMPS,ioos:station:USF.COMPS:ARP:1,2019-03-01T04:42:00Z,28.4330,-82.6670,24.44,1111122 
COMPS,ioos:station:USF.COMPS:ARP:1,2019-03-01T04:48:00Z,28.4330,-82.6670,24.71,1111122 
COMPS,ioos:station:USF.COMPS:ARP:1,2019-03-01T04:54:00Z,28.4330,-82.6670,25.0,1111122 
COMPS,ioos:station:USF.COMPS:ARP:1,2019-03-01T05:00:00Z,28.4330,-82.6670,24.95,1111122 
COMPS,ioos:station:USF.COMPS:ARP:1,2019-03-01T05:06:00Z,28.4330,-82.6670,24.63,1111122 
COMPS,ioos:station:USF.COMPS:ARP:1,2019-03-01T05:12:00Z,28.4330,-82.6670,24.46,1111122 
COMPS,ioos:station:USF.COMPS:ARP:1,2019-03-01T05:18:00Z,28.4330,-82.6670,24.41,1111122 
COMPS,ioos:station:USF.COMPS:ARP:1,2019-03-01T05:24:00Z,28.4330,-82.6670,24.68,1111122 
COMPS,ioos:station:USF.COMPS:ARP:1,2019-03-01T05:30:00Z,28.4330,-82.6670,24.78,1111122 
COMPS,ioos:station:USF.COMPS:ARP:1,2019-03-01T05:36:00Z,28.4330,-82.6670,24.31,1111122 
COMPS,ioos:station:USF.COMPS:ARP:1,2019-03-01T05:42:00Z,28.4330,-82.6670,24.36,1111122 
COMPS,ioos:station:USF.COMPS:ARP:1,2019-03-01T05:48:00Z,28.4330,-82.6670,24.66,1111122 
COMPS,ioos:station:USF.COMPS:ARP:1,2019-03-01T05:54:00Z,28.4330,-82.6670,24.72,1111122 
COMPS,ioos:station:USF.COMPS:ARP:1,2019-03-01T06:00:00Z,28.4330,-82.6670,24.42,1111122 
COMPS,ioos:station:USF.COMPS:ARP:1,2019-03-01T06:06:00Z,28.4330,-82.6670,24.8,1111122 
COMPS,ioos:station:USF.COMPS:ARP:1,2019-03-01T06:12:00Z,28.4330,-82.6670,24.65,1111122 
COMPS,ioos:station:USF.COMPS:ARP:1,2019-03-01T06:18:00Z,28.4330,-82.6670,24.5,1111122 
COMPS,ioos:station:USF.COMPS:ARP:1,2019-03-01T06:24:00Z,28.4330,-82.6670,24.83,1111122 
COMPS,ioos:station:USF.COMPS:ARP:1,2019-03-01T06:30:00Z,28.4330,-82.6670,24.63,1111122 
COMPS,ioos:station:USF.COMPS:ARP:1,2019-03-01T06:36:00Z,28.4330,-82.6670,24.54,1111122 
COMPS,ioos:station:USF.COMPS:ARP:1,2019-03-01T06:42:00Z,28.4330,-82.6670,24.65,1111122 
COMPS,ioos:station:USF.COMPS:ARP:1,2019-03-01T06:48:00Z,28.4330,-82.6670,25.06,1111122 
COMPS,ioos:station:USF.COMPS:ARP:1,2019-03-01T06:54:00Z,28.4330,-82.6670,25.15,1111122 
COMPS,ioos:station:USF.COMPS:ARP:1,2019-03-01T07:00:00Z,28.4330,-82.6670,25.61,1111122 
COMPS,ioos:station:USF.COMPS:ARP:1,2019-03-01T07:06:00Z,28.4330,-82.6670,25.05,1111122 
COMPS,ioos:station:USF.COMPS:ARP:1,2019-03-01T07:12:00Z,28.4330,-82.6670,25.24,1111122 
COMPS,ioos:station:USF.COMPS:ARP:1,2019-03-01T07:18:00Z,28.4330,-82.6670,25.07,1111122 
COMPS,ioos:station:USF.COMPS:ARP:1,2019-03-01T07:24:00Z,28.4330,-82.6670,25.08,1111122 
COMPS,ioos:station:USF.COMPS:ARP:1,2019-03-01T07:30:00Z,28.4330,-82.6670,25.13,1111122 
COMPS,ioos:station:USF.COMPS:ARP:1,2019-03-01T07:36:00Z,28.4330,-82.6670,24.02,1111122 
COMPS,ioos:station:USF.COMPS:ARP:1,2019-03-01T07:42:00Z,28.4330,-82.6670,21.28,1111122 
COMPS,ioos:station:USF.COMPS:ARP:1,2019-03-01T07:48:00Z,28.4330,-82.6670,20.52,1111122 
COMPS,ioos:station:USF.COMPS:ARP:1,2019-03-01T07:54:00Z,28.4330,-82.6670,20.32,1111122 
COMPS,ioos:station:USF.COMPS:ARP:1,2019-03-01T08:00:00Z,28.4330,-82.6670,19.72,1111122 
COMPS,ioos:station:USF.COMPS:ARP:1,2019-03-01T08:06:00Z,28.4330,-82.6670,19.65,1111122 
COMPS,ioos:station:USF.COMPS:ARP:1,2019-03-01T08:12:00Z,28.4330,-82.6670,19.69,1111122 
COMPS,ioos:station:USF.COMPS:ARP:1,2019-03-01T08:18:00Z,28.4330,-82.6670,19.62,1111122 
COMPS,ioos:station:USF.COMPS:ARP:1,2019-03-01T08:24:00Z,28.4330,-82.6670,19.43,1111122 
COMPS,ioos:station:USF.COMPS:ARP:1,2019-03-01T08:30:00Z,28.4330,-82.6670,19.35,1111122 
COMPS,ioos:station:USF.COMPS:ARP:1,2019-03-01T08:36:00Z,28.4330,-82.6670,19.36,1111122 
COMPS,ioos:station:USF.COMPS:ARP:1,2019-03-01T08:42:00Z,28.4330,-82.6670,19.35,1111122 
COMPS,ioos:station:USF.COMPS:ARP:1,2019-03-01T08:48:00Z,28.4330,-82.6670,19.24,1111122 
COMPS,ioos:station:USF.COMPS:ARP:1,2019-03-01T08:54:00Z,28.4330,-82.6670,19.49,1111122 
COMPS,ioos:station:USF.COMPS:ARP:1,2019-03-01T09:00:00Z,28.4330,-82.6670,19.28,1111122 
COMPS,ioos:station:USF.COMPS:ARP:1,2019-03-01T09:06:00Z,28.4330,-82.6670,19.4,1111122 
COMPS,ioos:station:USF.COMPS:ARP:1,2019-03-01T09:12:00Z,28.4330,-82.6670,19.45,1111122 
COMPS,ioos:station:USF.COMPS:ARP:1,2019-03-01T09:18:00Z,28.4330,-82.6670,19.58,1111122 
COMPS,ioos:station:USF.COMPS:ARP:1,2019-03-01T09:24:00Z,28.4330,-82.6670,19.35,1111122 
COMPS,ioos:station:USF.COMPS:ARP:1,2019-03-01T09:30:00Z,28.4330,-82.6670,19.24,1111122 
COMPS,ioos:station:USF.COMPS:ARP:1,2019-03-01T09:36:00Z,28.4330,-82.6670,19.31,1111122 
COMPS,ioos:station:USF.COMPS:ARP:1,2019-03-01T09:42:00Z,28.4330,-82.6670,19.34,1111122 
COMPS,ioos:station:USF.COMPS:ARP:1,2019-03-01T09:48:00Z,28.4330,-82.6670,19.59,1111122 
COMPS,ioos:station:USF.COMPS:ARP:1,2019-03-01T09:54:00Z,28.4330,-82.6670,19.94,1111122 
COMPS,ioos:station:USF.COMPS:ARP:1,2019-03-01T10:00:00Z,28.4330,-82.6670,19.75,1111122 
COMPS,ioos:station:USF.COMPS:ARP:1,2019-03-01T10:06:00Z,28.4330,-82.6670,19.6,1111122 
COMPS,ioos:station:USF.COMPS:ARP:1,2019-03-01T10:12:00Z,28.4330,-82.6670,19.68,1111122 
COMPS,ioos:station:USF.COMPS:ARP:1,2019-03-01T10:18:00Z,28.4330,-82.6670,19.7,1111122 
COMPS,ioos:station:USF.COMPS:ARP:1,2019-03-01T10:24:00Z,28.4330,-82.6670,19.46,1111122 
COMPS,ioos:station:USF.COMPS:ARP:1,2019-03-01T10:30:00Z,28.4330,-82.6670,19.48,1111122 
COMPS,ioos:station:USF.COMPS:ARP:1,2019-03-01T10:36:00Z,28.4330,-82.6670,19.34,1111122 
COMPS,ioos:station:USF.COMPS:ARP:1,2019-03-01T10:42:00Z,28.4330,-82.6670,19.22,1111122 
COMPS,ioos:station:USF.COMPS:ARP:1,2019-03-01T10:48:00Z,28.4330,-82.6670,19.13,1111122 
COMPS,ioos:station:USF.COMPS:ARP:1,2019-03-01T10:54:00Z,28.4330,-82.6670,19.32,1111122 
COMPS,ioos:station:USF.COMPS:ARP:1,2019-03-01T11:00:00Z,28.4330,-82.6670,19.11,1111122 
COMPS,ioos:station:USF.COMPS:ARP:1,2019-03-01T11:06:00Z,28.4330,-82.6670,19.22,1111122 
COMPS,ioos:station:USF.COMPS:ARP:1,2019-03-01T11:12:00Z,28.4330,-82.6670,19.25,1111122 
COMPS,ioos:station:USF.COMPS:ARP:1,2019-03-01T11:18:00Z,28.4330,-82.6670,19.16,1111122 
COMPS,ioos:station:USF.COMPS:ARP:1,2019-03-01T11:24:00Z,28.4330,-82.6670,19.12,1111122 
COMPS,ioos:station:USF.COMPS:ARP:1,2019-03-01T11:30:00Z,28.4330,-82.6670,19.21,1111122 
COMPS,ioos:station:USF.COMPS:ARP:1,2019-03-01T11:36:00Z,28.4330,-82.6670,19.34,1111122 
COMPS,ioos:station:USF.COMPS:ARP:1,2019-03-01T11:42:00Z,28.4330,-82.6670,19.38,1111122 
COMPS,ioos:station:USF.COMPS:ARP:1,2019-03-01T11:48:00Z,28.4330,-82.6670,19.54,1111122 
COMPS,ioos:station:USF.COMPS:ARP:1,2019-03-01T11:54:00Z,28.4330,-82.6670,20.0,1111122 
COMPS,ioos:station:USF.COMPS:ARP:1,2019-03-01T12:00:00Z,28.4330,-82.6670,19.93,1111122 
COMPS,ioos:station:USF.COMPS:ARP:1,2019-03-01T12:06:00Z,28.4330,-82.6670,19.92,1111122 
COMPS,ioos:station:USF.COMPS:ARP:1,2019-03-01T12:12:00Z,28.4330,-82.6670,19.99,1111122 
COMPS,ioos:station:USF.COMPS:ARP:1,2019-03-01T12:18:00Z,28.4330,-82.6670,19.8,1111122 
COMPS,ioos:station:USF.COMPS:ARP:1,2019-03-01T12:24:00Z,28.4330,-82.6670,20.08,1111122 
COMPS,ioos:station:USF.COMPS:ARP:1,2019-03-01T12:30:00Z,28.4330,-82.6670,20.69,1111122 
COMPS,ioos:station:USF.COMPS:ARP:1,2019-03-01T12:36:00Z,28.4330,-82.6670,20.67,1111122 
COMPS,ioos:station:USF.COMPS:ARP:1,2019-03-01T12:42:00Z,28.4330,-82.6670,20.56,1111122 
COMPS,ioos:station:USF.COMPS:ARP:1,2019-03-01T12:48:00Z,28.4330,-82.6670,20.61,1111122 
COMPS,ioos:station:USF.COMPS:ARP:1,2019-03-01T12:54:00Z,28.4330,-82.6670,20.75,1111122 
COMPS,ioos:station:USF.COMPS:ARP:1,2019-03-01T13:00:00Z,28.4330,-82.6670,20.75,1111122 
COMPS,ioos:station:USF.COMPS:ARP:1,2019-03-01T13:06:00Z,28.4330,-82.6670,20.72,1111122 
COMPS,ioos:station:USF.COMPS:ARP:1,2019-03-01T13:12:00Z,28.4330,-82.6670,20.5,1111122 
COMPS,ioos:station:USF.COMPS:ARP:1,2019-03-01T13:18:00Z,28.4330,-82.6670,20.42,1111122 
COMPS,ioos:station:USF.COMPS:ARP:1,2019-03-01T13:24:00Z,28.4330,-82.6670,20.53,1111122 
COMPS,ioos:station:USF.COMPS:ARP:1,2019-03-01T13:30:00Z,28.4330,-82.6670,20.67,1111122 
COMPS,ioos:station:USF.COMPS:ARP:1,2019-03-01T13:36:00Z,28.4330,-82.6670,20.93,1111122 
COMPS,ioos:station:USF.COMPS:ARP:1,2019-03-01T13:42:00Z,28.4330,-82.6670,21.21,1111122 
COMPS,ioos:station:USF.COMPS:ARP:1,2019-03-01T13:48:00Z,28.4330,-82.6670,21.61,1111122 
COMPS,ioos:station:USF.COMPS:ARP:1,2019-03-01T13:54:00Z,28.4330,-82.6670,22.32,1111122 
COMPS,ioos:station:USF.COMPS:ARP:1,2019-03-01T14:00:00Z,28.4330,-82.6670,22.43,1111122 
COMPS,ioos:station:USF.COMPS:ARP:1,2019-03-01T14:06:00Z,28.4330,-82.6670,22.84,1111122 
COMPS,ioos:station:USF.COMPS:ARP:1,2019-03-01T14:12:00Z,28.4330,-82.6670,22.9,1111122 
COMPS,ioos:station:USF.COMPS:ARP:1,2019-03-01T14:18:00Z,28.4330,-82.6670,23.83,1111122 
COMPS,ioos:station:USF.COMPS:ARP:1,2019-03-01T14:24:00Z,28.4330,-82.6670,25.22,1111122 
COMPS,ioos:station:USF.COMPS:ARP:1,2019-03-01T14:30:00Z,28.4330,-82.6670,25.2,1111122 
COMPS,ioos:station:USF.COMPS:ARP:1,2019-03-01T14:36:00Z,28.4330,-82.6670,25.4,1111122 
COMPS,ioos:station:USF.COMPS:ARP:1,2019-03-01T14:42:00Z,28.4330,-82.6670,25.75,1111122 
COMPS,ioos:station:USF.COMPS:ARP:1,2019-03-01T14:48:00Z,28.4330,-82.6670,25.78,1111122 
COMPS,ioos:station:USF.COMPS:ARP:1,2019-03-01T14:54:00Z,28.4330,-82.6670,26.18,1111122 
COMPS,ioos:station:USF.COMPS:ARP:1,2019-03-01T15:00:00Z,28.4330,-82.6670,26.54,1111122 
COMPS,ioos:station:USF.COMPS:ARP:1,2019-03-01T15:06:00Z,28.4330,-82.6670,26.56,1111122 
COMPS,ioos:station:USF.COMPS:ARP:1,2019-03-01T15:12:00Z,28.4330,-82.6670,26.76,1111122 
COMPS,ioos:station:USF.COMPS:ARP:1,2019-03-01T15:18:00Z,28.4330,-82.6670,26.99,1111122 
COMPS,ioos:station:USF.COMPS:ARP:1,2019-03-01T15:24:00Z,28.4330,-82.6670,27.29,1111122 
COMPS,ioos:station:USF.COMPS:ARP:1,2019-03-01T15:30:00Z,28.4330,-82.6670,27.62,1111122 
COMPS,ioos:station:USF.COMPS:ARP:1,2019-03-01T15:36:00Z,28.4330,-82.6670,27.66,1111122 
COMPS,ioos:station:USF.COMPS:ARP:1,2019-03-01T15:42:00Z,28.4330,-82.6670,28.05,1111122 
COMPS,ioos:station:USF.COMPS:ARP:1,2019-03-01T15:48:00Z,28.4330,-82.6670,28.33,1111122 
COMPS,ioos:station:USF.COMPS:ARP:1,2019-03-01T15:54:00Z,28.4330,-82.6670,28.67,1111122 
COMPS,ioos:station:USF.COMPS:ARP:1,2019-03-01T16:00:00Z,28.4330,-82.6670,28.91,1111122 
COMPS,ioos:station:USF.COMPS:ARP:1,2019-03-01T16:06:00Z,28.4330,-82.6670,28.99,1111122 
COMPS,ioos:station:USF.COMPS:ARP:1,2019-03-01T16:12:00Z,28.4330,-82.6670,29.43,1111122 
COMPS,ioos:station:USF.COMPS:ARP:1,2019-03-01T16:18:00Z,28.4330,-82.6670,29.59,1111122 
COMPS,ioos:station:USF.COMPS:ARP:1,2019-03-01T16:24:00Z,28.4330,-82.6670,29.57,1111122 
COMPS,ioos:station:USF.COMPS:ARP:1,2019-03-01T16:30:00Z,28.4330,-82.6670,29.46,1111122 
COMPS,ioos:station:USF.COMPS:ARP:1,2019-03-01T16:36:00Z,28.4330,-82.6670,30.08,1111122 
COMPS,ioos:station:USF.COMPS:ARP:1,2019-03-01T16:42:00Z,28.4330,-82.6670,30.23,1111122 
COMPS,ioos:station:USF.COMPS:ARP:1,2019-03-01T16:48:00Z,28.4330,-82.6670,30.19,1111122 
COMPS,ioos:station:USF.COMPS:ARP:1,2019-03-01T16:54:00Z,28.4330,-82.6670,30.93,1111122 
COMPS,ioos:station:USF.COMPS:ARP:1,2019-03-01T17:00:00Z,28.4330,-82.6670,31.05,1111122 
COMPS,ioos:station:USF.COMPS:ARP:1,2019-03-01T17:06:00Z,28.4330,-82.6670,31.19,1111122 
COMPS,ioos:station:USF.COMPS:ARP:1,2019-03-01T17:12:00Z,28.4330,-82.6670,30.7,1111122 
COMPS,ioos:station:USF.COMPS:ARP:1,2019-03-01T17:18:00Z,28.4330,-82.6670,31.02,1111122 
COMPS,ioos:station:USF.COMPS:ARP:1,2019-03-01T17:24:00Z,28.4330,-82.6670,30.53,1111122 
COMPS,ioos:station:USF.COMPS:ARP:1,2019-03-01T17:30:00Z,28.4330,-82.6670,30.29,1111122 
COMPS,ioos:station:USF.COMPS:ARP:1,2019-03-01T17:36:00Z,28.4330,-82.6670,30.27,1111122 
COMPS,ioos:station:USF.COMPS:ARP:1,2019-03-01T17:42:00Z,28.4330,-82.6670,28.59,1111122 
COMPS,ioos:station:USF.COMPS:ARP:1,2019-03-01T17:48:00Z,28.4330,-82.6670,28.55,1111122 
COMPS,ioos:station:USF.COMPS:ARP:1,2019-03-01T17:54:00Z,28.4330,-82.6670,28.51,1111122 
COMPS,ioos:station:USF.COMPS:ARP:1,2019-03-01T18:00:00Z,28.4330,-82.6670,28.16,1111122 
COMPS,ioos:station:USF.COMPS:ARP:1,2019-03-01T18:06:00Z,28.4330,-82.6670,28.01,1111122 
COMPS,ioos:station:USF.COMPS:ARP:1,2019-03-01T18:12:00Z,28.4330,-82.6670,27.87,1111122 
COMPS,ioos:station:USF.COMPS:ARP:1,2019-03-01T18:18:00Z,28.4330,-82.6670,27.8,1111122 
COMPS,ioos:station:USF.COMPS:ARP:1,2019-03-01T18:24:00Z,28.4330,-82.6670,27.93,1111122 
COMPS,ioos:station:USF.COMPS:ARP:1,2019-03-01T18:30:00Z,28.4330,-82.6670,27.92,1111122 
COMPS,ioos:station:USF.COMPS:ARP:1,2019-03-01T18:36:00Z,28.4330,-82.6670,28.09,1111122 
COMPS,ioos:station:USF.COMPS:ARP:1,2019-03-01T18:42:00Z,28.4330,-82.6670,27.93,1111122 
COMPS,ioos:station:USF.COMPS:ARP:1,2019-03-01T18:48:00Z,28.4330,-82.6670,28.36,1111122 
COMPS,ioos:station:USF.COMPS:ARP:1,2019-03-01T18:54:00Z,28.4330,-82.6670,28.15,1111122 
COMPS,ioos:station:USF.COMPS:ARP:1,2019-03-01T19:00:00Z,28.4330,-82.6670,28.03,1111122 
COMPS,ioos:station:USF.COMPS:ARP:1,2019-03-01T19:06:00Z,28.4330,-82.6670,27.96,1111122 
COMPS,ioos:station:USF.COMPS:ARP:1,2019-03-01T19:12:00Z,28.4330,-82.6670,28.04,1111122 
COMPS,ioos:station:USF.COMPS:ARP:1,2019-03-01T19:18:00Z,28.4330,-82.6670,28.19,1111122 
COMPS,ioos:station:USF.COMPS:ARP:1,2019-03-01T19:24:00Z,28.4330,-82.6670,28.08,1111122 
COMPS,ioos:station:USF.COMPS:ARP:1,2019-03-01T19:30:00Z,28.4330,-82.6670,27.97,1111122 
COMPS,ioos:station:USF.COMPS:ARP:1,2019-03-01T19:36:00Z,28.4330,-82.6670,27.94,1111122 
COMPS,ioos:station:USF.COMPS:ARP:1,2019-03-01T19:42:00Z,28.4330,-82.6670,27.89,1111122 
COMPS,ioos:station:USF.COMPS:ARP:1,2019-03-01T19:48:00Z,28.4330,-82.6670,28.07,1111122 
COMPS,ioos:station:USF.COMPS:ARP:1,2019-03-01T19:54:00Z,28.4330,-82.6670,27.87,1111122 
COMPS,ioos:station:USF.COMPS:ARP:1,2019-03-01T20:00:00Z,28.4330,-82.6670,27.56,1111122 
COMPS,ioos:station:USF.COMPS:ARP:1,2019-03-01T20:06:00Z,28.4330,-82.6670,27.43,1111122 
COMPS,ioos:station:USF.COMPS:ARP:1,2019-03-01T20:12:00Z,28.4330,-82.6670,27.44,1111122 
COMPS,ioos:station:USF.COMPS:ARP:1,2019-03-01T20:18:00Z,28.4330,-82.6670,27.29,1111122 
COMPS,ioos:station:USF.COMPS:ARP:1,2019-03-01T20:24:00Z,28.4330,-82.6670,27.23,1111122 
COMPS,ioos:station:USF.COMPS:ARP:1,2019-03-01T20:30:00Z,28.4330,-82.6670,27.24,1111122 
COMPS,ioos:station:USF.COMPS:ARP:1,2019-03-01T20:36:00Z,28.4330,-82.6670,27.32,1111122 
COMPS,ioos:station:USF.COMPS:ARP:1,2019-03-01T20:42:00Z,28.4330,-82.6670,27.49,1111122 
COMPS,ioos:station:USF.COMPS:ARP:1,2019-03-01T20:48:00Z,28.4330,-82.6670,27.39,1111122 
COMPS,ioos:station:USF.COMPS:ARP:1,2019-03-01T20:54:00Z,28.4330,-82.6670,27.46,1111122 
COMPS,ioos:station:USF.COMPS:ARP:1,2019-03-01T21:00:00Z,28.4330,-82.6670,27.22,1111122 
COMPS,ioos:station:USF.COMPS:ARP:1,2019-03-01T21:06:00Z,28.4330,-82.6670,27.28,1111122 
COMPS,ioos:station:USF.COMPS:ARP:1,2019-03-01T21:12:00Z,28.4330,-82.6670,27.17,1111122 
COMPS,ioos:station:USF.COMPS:ARP:1,2019-03-01T21:18:00Z,28.4330,-82.6670,27.13,1111122 
COMPS,ioos:station:USF.COMPS:ARP:1,2019-03-01T21:24:00Z,28.4330,-82.6670,27.09,1111122 
COMPS,ioos:station:USF.COMPS:ARP:1,2019-03-01T21:30:00Z,28.4330,-82.6670,27.09,1111122 
COMPS,ioos:station:USF.COMPS:ARP:1,2019-03-01T21:36:00Z,28.4330,-82.6670,27.02,1111122 
COMPS,ioos:station:USF.COMPS:ARP:1,2019-03-01T21:42:00Z,28.4330,-82.6670,27.01,1111122 
COMPS,ioos:station:USF.COMPS:ARP:1,2019-03-01T21:48:00Z,28.4330,-82.6670,27.07,1111122 
COMPS,ioos:station:USF.COMPS:ARP:1,2019-03-01T21:54:00Z,28.4330,-82.6670,27.14,1111122 
COMPS,ioos:station:USF.COMPS:ARP:1,2019-03-01T22:00:00Z,28.4330,-82.6670,26.95,1111122 
COMPS,ioos:station:USF.COMPS:ARP:1,2019-03-01T22:06:00Z,28.4330,-82.6670,26.9,1111122 
COMPS,ioos:station:USF.COMPS:ARP:1,2019-03-01T22:12:00Z,28.4330,-82.6670,26.95,1111122 
COMPS,ioos:station:USF.COMPS:ARP:1,2019-03-01T22:18:00Z,28.4330,-82.6670,26.95,1111122 
COMPS,ioos:station:USF.COMPS:ARP:1,2019-03-01T22:24:00Z,28.4330,-82.6670,26.94,1111122 
COMPS,ioos:station:USF.COMPS:ARP:1,2019-03-01T22:30:00Z,28.4330,-82.6670,27.11,1111122 
COMPS,ioos:station:USF.COMPS:ARP:1,2019-03-01T22:36:00Z,28.4330,-82.6670,27.78,1111122 
COMPS,ioos:station:USF.COMPS:ARP:1,2019-03-01T22:42:00Z,28.4330,-82.6670,27.73,1111122 
COMPS,ioos:station:USF.COMPS:ARP:1,2019-03-01T22:48:00Z,28.4330,-82.6670,27.5,1111122 
COMPS,ioos:station:USF.COMPS:ARP:1,2019-03-01T22:54:00Z,28.4330,-82.6670,27.49,1111122 
COMPS,ioos:station:USF.COMPS:ARP:1,2019-03-01T23:00:00Z,28.4330,-82.6670,27.42,1111122 
COMPS,ioos:station:USF.COMPS:ARP:1,2019-03-01T23:06:00Z,28.4330,-82.6670,27.57,1111122 
COMPS,ioos:station:USF.COMPS:ARP:1,2019-03-01T23:12:00Z,28.4330,-82.6670,27.87,1111122 
COMPS,ioos:station:USF.COMPS:ARP:1,2019-03-01T23:18:00Z,28.4330,-82.6670,27.85,1111122 
COMPS,ioos:station:USF.COMPS:ARP:1,2019-03-01T23:24:00Z,28.4330,-82.6670,27.53,1111122 
COMPS,ioos:station:USF.COMPS:ARP:1,2019-03-01T23:30:00Z,28.4330,-82.6670,27.33,1111122 
COMPS,ioos:station:USF.COMPS:ARP:1,2019-03-01T23:36:00Z,28.4330,-82.6670,27.26,1111122 
COMPS,ioos:station:USF.COMPS:ARP:1,2019-03-01T23:42:00Z,28.4330,-82.6670,27.08,1111122 
COMPS,ioos:station:USF.COMPS:ARP:1,2019-03-01T23:48:00Z,28.4330,-82.6670,27.1,1111122 
COMPS,ioos:station:USF.COMPS:ARP:1,2019-03-01T23:54:00Z,28.4330,-82.6670,27.27,1111122 
COMPS,ioos:station:USF.COMPS:ARP:1,2019-03-02T00:00:00Z,28.4330,-82.6670,27.0,1111122 
COMPS,ioos:station:USF.COMPS:ARP:1,2019-03-02T00:06:00Z,28.4330,-82.6670,26.9,1111122 
COMPS,ioos:station:USF.COMPS:ARP:1,2019-03-02T00:12:00Z,28.4330,-82.6670,26.8,1111122 
COMPS,ioos:station:USF.COMPS:ARP:1,2019-03-02T00:18:00Z,28.4330,-82.6670,26.76,1111122 
COMPS,ioos:station:USF.COMPS:ARP:1,2019-03-02T00:24:00Z,28.4330,-82.6670,26.79,1111122 
COMPS,ioos:station:USF.COMPS:ARP:1,2019-03-02T00:30:00Z,28.4330,-82.6670,26.87,1111122 
COMPS,ioos:station:USF.COMPS:ARP:1,2019-03-02T00:36:00Z,28.4330,-82.6670,27.57,1111122 
COMPS,ioos:station:USF.COMPS:ARP:1,2019-03-02T00:42:00Z,28.4330,-82.6670,27.33,1111122 
COMPS,ioos:station:USF.COMPS:ARP:1,2019-03-02T00:48:00Z,28.4330,-82.6670,26.74,1111122 
COMPS,ioos:station:USF.COMPS:ARP:1,2019-03-02T00:54:00Z,28.4330,-82.6670,26.87,1111122 
COMPS,ioos:station:USF.COMPS:ARP:1,2019-03-02T01:00:00Z,28.4330,-82.6670,27.16,1111122 
COMPS,ioos:station:USF.COMPS:ARP:1,2019-03-02T01:06:00Z,28.4330,-82.6670,26.78,1111122 
COMPS,ioos:station:USF.COMPS:ARP:1,2019-03-02T01:12:00Z,28.4330,-82.6670,26.65,1111122 
COMPS,ioos:station:USF.COMPS:ARP:1,2019-03-02T01:18:00Z,28.4330,-82.6670,26.65,1111122 
COMPS,ioos:station:USF.COMPS:ARP:1,2019-03-02T01:24:00Z,28.4330,-82.6670,26.75,1111122 
COMPS,ioos:station:USF.COMPS:ARP:1,2019-03-02T01:30:00Z,28.4330,-82.6670,26.96,1111122 
COMPS,ioos:station:USF.COMPS:ARP:1,2019-03-02T01:36:00Z,28.4330,-82.6670,26.9,1111122 
COMPS,ioos:station:USF.COMPS:ARP:1,2019-03-02T01:42:00Z,28.4330,-82.6670,27.46,1111122 
COMPS,ioos:station:USF.COMPS:ARP:1,2019-03-02T01:48:00Z,28.4330,-82.6670,27.23,1111122 
COMPS,ioos:station:USF.COMPS:ARP:1,2019-03-02T01:54:00Z,28.4330,-82.6670,27.33,1111122 
COMPS,ioos:station:USF.COMPS:ARP:1,2019-03-02T02:00:00Z,28.4330,-82.6670,27.5,1111122 
COMPS,ioos:station:USF.COMPS:ARP:1,2019-03-02T02:06:00Z,28.4330,-82.6670,26.7,1111122 
COMPS,ioos:station:USF.COMPS:ARP:1,2019-03-02T02:12:00Z,28.4330,-82.6670,26.38,1111122 
COMPS,ioos:station:USF.COMPS:ARP:1,2019-03-02T02:18:00Z,28.4330,-82.6670,26.67,1111122 
COMPS,ioos:station:USF.COMPS:ARP:1,2019-03-02T02:24:00Z,28.4330,-82.6670,26.16,1111122 
COMPS,ioos:station:USF.COMPS:ARP:1,2019-03-02T02:30:00Z,28.4330,-82.6670,26.48,1111122 
COMPS,ioos:station:USF.COMPS:ARP:1,2019-03-02T02:36:00Z,28.4330,-82.6670,26.39,1111122 
COMPS,ioos:station:USF.COMPS:ARP:1,2019-03-02T02:42:00Z,28.4330,-82.6670,26.51,1111122 
COMPS,ioos:station:USF.COMPS:ARP:1,2019-03-02T02:48:00Z,28.4330,-82.6670,26.6,1111122 
COMPS,ioos:station:USF.COMPS:ARP:1,2019-03-02T02:54:00Z,28.4330,-82.6670,26.0,1111122 
COMPS,ioos:station:USF.COMPS:ARP:1,2019-03-02T03:00:00Z,28.4330,-82.6670,25.82,1111122 
COMPS,ioos:station:USF.COMPS:ARP:1,2019-03-02T03:06:00Z,28.4330,-82.6670,26.4,1111122 